EJU95FN LEIB-EGGD

Flight info

Callsign EJU95FN
Flight time N/A
Altitude 38000
Route EPAMA N856 UMURE DCT XIKEN DCT KARES DCT ARBEK DCT REBUL DCT USKAR DCT MOPAS DCT GIROM DCT AGN DCT SECHE DCT UVELI DCT CNA/N0424F340 DCT MANAK DCT MUREL/N0400F300 DCT NOZHU/N0396F290 DCT SHIRI DCT TOJAQ
Aircraft A320/M-SDE2E3FGHIJ1RWXYZ/LB1

Departure

Time 2026-04-30 13:24
Airport Ibiza Airport (LEIB)

Arrival

Time N/A
Airport Bristol Airport (EGGD)
Time Latitude Longitude Altitude Speed Heading
2026-04-30 13:04 38.87463 1.36665 8 ft 0 kts
2026-04-30 13:17 38.87463 1.36691 8 ft 1 kts 130°
2026-04-30 13:18 38.87450 1.36695 8 ft 2 kts 166°
2026-04-30 13:18 38.87414 1.36733 8 ft 4 kts 92°
2026-04-30 13:18 38.87437 1.36798 8 ft 13 kts 62°
2026-04-30 13:19 38.87497 1.36941 8 ft 21 kts 62°
2026-04-30 13:19 38.87569 1.37114 8 ft 23 kts 62°
2026-04-30 13:19 38.87643 1.37294 9 ft 24 kts 61°
2026-04-30 13:19 38.87697 1.37449 8 ft 14 kts 89°
2026-04-30 13:20 38.87641 1.37518 8 ft 11 kts 152°
2026-04-30 13:20 38.87586 1.37572 10 ft 9 kts 110°
2026-04-30 13:20 38.87618 1.37668 9 ft 17 kts 60°
2026-04-30 13:20 38.87686 1.37830 9 ft 22 kts 61°
2026-04-30 13:21 38.87761 1.38010 9 ft 23 kts 62°
2026-04-30 13:21 38.87840 1.38200 10 ft 25 kts 62°
2026-04-30 13:21 38.87919 1.38392 9 ft 23 kts 62°
2026-04-30 13:22 38.87959 1.38665 10 ft 11 kts 153°
2026-04-30 13:22 38.87898 1.38699 12 ft 8 kts 160°
2026-04-30 13:22 38.87820 1.38606 11 ft 27 kts 242°
2026-04-30 13:23 38.87606 1.38089 13 ft 101 kts 242°
2026-04-30 13:23 38.86661 1.35791 594 ft 159 kts 246°
2026-04-30 13:24 38.85649 1.33178 1859 ft 177 kts 246°
2026-04-30 13:24 38.84430 1.30019 2481 ft 221 kts 245°
2026-04-30 13:25 38.83181 1.26319 3934 ft 225 kts 270°
2026-04-30 13:25 38.84768 1.22986 5284 ft 242 kts 321°
2026-04-30 13:26 38.89027 1.19120 7559 ft 258 kts 321°
2026-04-30 13:26 38.92145 1.16738 9173 ft 270 kts 338°
2026-04-30 13:27 38.96078 1.16594 10206 ft 310 kts 12°
2026-04-30 13:28 39.02911 1.18893 11614 ft 353 kts 12°
2026-04-30 13:28 39.07708 1.20491 13114 ft 359 kts 12°
2026-04-30 13:28 39.10108 1.21284 13845 ft 362 kts 12°
2026-04-30 13:29 39.15030 1.22910 15138 ft 368 kts 12°
2026-04-30 13:29 39.20044 1.24572 16368 ft 375 kts 12°
2026-04-30 13:30 39.27739 1.27122 18202 ft 386 kts 12°
2026-04-30 13:31 39.32993 1.28875 19253 ft 393 kts 11°
2026-04-30 13:31 39.40999 1.31551 20794 ft 403 kts 11°
2026-04-30 13:32 39.46464 1.33380 21780 ft 409 kts 11°
2026-04-30 13:32 39.52015 1.35240 22737 ft 415 kts 11°
2026-04-30 13:33 39.57650 1.37124 23686 ft 421 kts
2026-04-30 13:33 39.63388 1.37639 24448 ft 415 kts 349°
2026-04-30 13:34 39.66262 1.37253 24840 ft 417 kts 349°
2026-04-30 13:34 39.74984 1.36091 25980 ft 423 kts 349°
2026-04-30 13:35 39.77924 1.35702 26356 ft 426 kts 349°
2026-04-30 13:35 39.83841 1.34913 27141 ft 429 kts 349°
2026-04-30 13:36 39.89760 1.34122 27874 ft 433 kts 349°
2026-04-30 13:36 39.92766 1.33720 28223 ft 435 kts 349°
2026-04-30 13:36 39.98821 1.32914 28923 ft 439 kts 349°
2026-04-30 13:37 40.01868 1.32506 29264 ft 441 kts 349°
2026-04-30 13:37 40.08002 1.31680 29977 ft 445 kts 348°
2026-04-30 13:38 40.14190 1.30850 30524 ft 449 kts 348°
2026-04-30 13:38 40.17263 1.30436 30781 ft 451 kts 348°
2026-04-30 13:38 40.23530 1.29589 31279 ft 455 kts 349°
2026-04-30 13:39 40.29833 1.28745 31948 ft 454 kts 348°
2026-04-30 13:39 40.36102 1.27900 32661 ft 452 kts 348°
2026-04-30 13:40 40.39232 1.27478 33009 ft 451 kts 348°
2026-04-30 13:40 40.42352 1.27054 33346 ft 451 kts 348°
2026-04-30 13:40 40.45429 1.26635 33693 ft 450 kts 348°
2026-04-30 13:40 40.48541 1.26212 34081 ft 449 kts 348°
2026-04-30 13:41 40.51635 1.25793 34427 ft 447 kts 348°
2026-04-30 13:41 40.54725 1.25377 34743 ft 445 kts 348°
2026-04-30 13:41 40.57805 1.24961 35028 ft 444 kts 348°
2026-04-30 13:41 40.60879 1.24544 35304 ft 444 kts 348°
2026-04-30 13:42 40.63948 1.24126 35569 ft 443 kts 348°
2026-04-30 13:42 40.67009 1.23708 35823 ft 442 kts 348°
2026-04-30 13:42 40.73120 1.22873 36331 ft 441 kts 348°
2026-04-30 13:43 40.76172 1.22452 36571 ft 440 kts 348°
2026-04-30 13:43 40.79176 1.22035 36800 ft 440 kts 348°
2026-04-30 13:43 40.82216 1.21612 37026 ft 439 kts 348°
2026-04-30 13:43 40.85256 1.21191 37247 ft 439 kts 348°
2026-04-30 13:44 40.88287 1.20775 37463 ft 438 kts 348°
2026-04-30 13:44 40.91319 1.20359 37712 ft 437 kts 348°
2026-04-30 13:44 40.94342 1.19946 37984 ft 436 kts 348°
2026-04-30 13:44 40.97354 1.19535 38079 ft 435 kts 348°
2026-04-30 13:45 41.06322 1.18307 38084 ft 433 kts 348°
2026-04-30 13:46 41.12325 1.17477 38083 ft 433 kts 348°
2026-04-30 13:46 41.18329 1.16689 38089 ft 434 kts 349°
2026-04-30 13:47 41.24353 1.16090 38090 ft 435 kts 349°
2026-04-30 13:47 41.30350 1.15513 38092 ft 435 kts 349°
2026-04-30 13:48 41.36383 1.14879 38109 ft 435 kts 348°
2026-04-30 13:48 41.42414 1.14233 38102 ft 435 kts 349°
2026-04-30 13:49 41.48452 1.13595 38103 ft 435 kts 349°
2026-04-30 13:49 41.54486 1.12957 38095 ft 435 kts 349°
2026-04-30 13:50 41.60483 1.12328 38103 ft 435 kts 349°
2026-04-30 13:50 41.69524 1.11377 38105 ft 434 kts 349°
2026-04-30 13:51 41.75541 1.10737 38093 ft 434 kts 349°
2026-04-30 13:51 41.81561 1.10083 38120 ft 434 kts 349°
2026-04-30 13:52 41.87529 1.09449 38113 ft 433 kts 349°
2026-04-30 13:52 41.93536 1.08815 38108 ft 433 kts 349°
2026-04-30 13:53 41.99538 1.08174 38121 ft 433 kts 349°
2026-04-30 13:53 42.05537 1.07523 38113 ft 432 kts 349°
2026-04-30 13:54 42.11492 1.06883 38105 ft 432 kts 349°
2026-04-30 13:54 42.17489 1.06240 38105 ft 432 kts 349°
2026-04-30 13:55 42.23489 1.05597 38134 ft 433 kts 349°
2026-04-30 13:55 42.29491 1.04949 38125 ft 433 kts 349°
2026-04-30 13:56 42.35499 1.04298 38105 ft 433 kts 349°
2026-04-30 13:56 42.41461 1.03662 38140 ft 434 kts 349°
2026-04-30 13:57 42.47481 1.03003 38123 ft 434 kts 349°
2026-04-30 13:57 42.53501 1.02341 38118 ft 435 kts 349°
2026-04-30 13:58 42.62512 1.01359 38144 ft 435 kts 349°
2026-04-30 13:59 42.68550 1.00706 38122 ft 434 kts 349°
2026-04-30 13:59 42.74581 1.00042 38119 ft 436 kts 349°
2026-04-30 14:00 42.80630 0.99371 38117 ft 436 kts 349°
2026-04-30 14:00 42.89672 0.98378 38116 ft 436 kts 350°
2026-04-30 14:01 42.95725 0.97714 38119 ft 437 kts 349°
2026-04-30 14:01 43.01780 0.97046 38136 ft 436 kts 350°
2026-04-30 14:02 43.07830 0.96374 38124 ft 436 kts 350°
2026-04-30 14:02 43.13881 0.95690 38116 ft 436 kts 350°
2026-04-30 14:03 43.19895 0.95027 38109 ft 437 kts 350°
2026-04-30 14:03 43.25956 0.94365 38115 ft 437 kts 350°
2026-04-30 14:04 43.32022 0.93680 38107 ft 438 kts 350°
2026-04-30 14:04 43.38093 0.92997 38105 ft 438 kts 350°
2026-04-30 14:05 43.44132 0.92324 38128 ft 439 kts 350°
2026-04-30 14:05 43.50225 0.91644 38111 ft 439 kts 350°
2026-04-30 14:06 43.59374 0.90620 38108 ft 440 kts 351°
2026-04-30 14:07 43.68502 0.89580 38112 ft 441 kts 351°
2026-04-30 14:08 43.77684 0.88543 38113 ft 442 kts 351°
2026-04-30 14:08 43.86874 0.87427 38123 ft 440 kts 346°
2026-04-30 14:09 43.92612 0.84838 38118 ft 431 kts 330°
2026-04-30 14:10 44.00735 0.79573 38119 ft 432 kts 331°
2026-04-30 14:10 44.06202 0.76061 38121 ft 433 kts 332°
2026-04-30 14:11 44.11672 0.72529 38113 ft 434 kts 331°
2026-04-30 14:11 44.17114 0.69000 38112 ft 435 kts 331°
2026-04-30 14:12 44.22603 0.65435 38117 ft 435 kts 332°
2026-04-30 14:12 44.28091 0.61847 38112 ft 436 kts 332°
2026-04-30 14:13 44.32657 0.58860 38117 ft 437 kts 332°
2026-04-30 14:13 44.39052 0.54665 38125 ft 437 kts 332°
2026-04-30 14:14 44.44562 0.51062 38142 ft 437 kts 332°
2026-04-30 14:14 44.50068 0.47431 38146 ft 438 kts 332°
2026-04-30 14:15 44.54647 0.44396 38134 ft 438 kts 332°
2026-04-30 14:15 44.61046 0.40127 38131 ft 438 kts 332°
2026-04-30 14:16 44.65657 0.37045 38143 ft 438 kts 332°
2026-04-30 14:16 44.71131 0.33387 38145 ft 439 kts 332°
2026-04-30 14:17 44.76647 0.29709 38150 ft 439 kts 332°
2026-04-30 14:17 44.82162 0.26021 38153 ft 438 kts 332°
2026-04-30 14:18 44.87662 0.22322 38132 ft 438 kts 332°
2026-04-30 14:18 44.95879 0.16772 38138 ft 438 kts 332°
2026-04-30 14:19 45.04137 0.11196 38125 ft 439 kts 333°
2026-04-30 14:20 45.09644 0.07469 38132 ft 439 kts 333°
2026-04-30 14:20 45.17870 0.01878 38142 ft 439 kts 333°
2026-04-30 14:21 45.23378 -0.01874 38123 ft 440 kts 333°
2026-04-30 14:22 45.31652 -0.07529 38116 ft 441 kts 333°
2026-04-30 14:22 45.39944 -0.13199 38123 ft 441 kts 333°
2026-04-30 14:23 45.50969 -0.20790 38118 ft 442 kts 333°
2026-04-30 14:24 45.59279 -0.26538 38122 ft 443 kts 333°
2026-04-30 14:25 45.69784 -0.35466 38106 ft 442 kts 321°
2026-04-30 14:26 45.77038 -0.43651 38106 ft 443 kts 320°
2026-04-30 14:27 45.84305 -0.51867 38103 ft 444 kts 321°
2026-04-30 14:27 45.89121 -0.57330 38103 ft 445 kts 321°
2026-04-30 14:28 45.96399 -0.65604 38108 ft 445 kts 320°
2026-04-30 14:28 46.01255 -0.71132 38106 ft 445 kts 320°
2026-04-30 14:29 46.10910 -0.82203 38106 ft 445 kts 320°
2026-04-30 14:31 46.23247 -0.95716 38112 ft 447 kts 331°
2026-04-30 14:31 46.31407 -1.02118 38116 ft 447 kts 330°
2026-04-30 14:32 46.39596 -1.08556 38116 ft 446 kts 331°
2026-04-30 14:33 46.45051 -1.12865 38111 ft 446 kts 330°
2026-04-30 14:33 46.50413 -1.17111 37526 ft 434 kts 331°
2026-04-30 14:33 46.53025 -1.19187 36958 ft 433 kts 331°
2026-04-30 14:34 46.55663 -1.21292 36339 ft 434 kts 331°
2026-04-30 14:34 46.58315 -1.23413 35730 ft 436 kts 332°
2026-04-30 14:34 46.60981 -1.25536 35121 ft 438 kts 332°
2026-04-30 14:34 46.63662 -1.27669 34470 ft 440 kts 332°
2026-04-30 14:35 46.69060 -1.31964 34086 ft 444 kts 332°
2026-04-30 14:35 46.71773 -1.34131 34112 ft 446 kts 332°
2026-04-30 14:36 46.77182 -1.38467 34109 ft 447 kts 332°
2026-04-30 14:36 46.82626 -1.42840 34113 ft 446 kts 332°
2026-04-30 14:37 46.88061 -1.47220 34096 ft 446 kts 332°
2026-04-30 14:37 46.93496 -1.51609 34093 ft 446 kts 332°
2026-04-30 14:38 46.98922 -1.56005 34068 ft 446 kts 331°
2026-04-30 14:38 47.04316 -1.60379 34067 ft 446 kts 331°
2026-04-30 14:39 47.09750 -1.64787 34070 ft 446 kts 332°
2026-04-30 14:39 47.15176 -1.69207 34077 ft 446 kts 332°
2026-04-30 14:40 47.23309 -1.75854 34083 ft 445 kts 331°
2026-04-30 14:40 47.28678 -1.80251 34079 ft 444 kts 331°
2026-04-30 14:41 47.34073 -1.84684 34081 ft 443 kts 331°
2026-04-30 14:41 47.39452 -1.89112 34074 ft 442 kts 330°
2026-04-30 14:42 47.44813 -1.93542 34091 ft 441 kts 330°
2026-04-30 14:42 47.50127 -1.97949 34079 ft 440 kts 330°
2026-04-30 14:43 47.55475 -2.02375 34079 ft 440 kts 330°
2026-04-30 14:43 47.60807 -2.06800 34067 ft 440 kts 330°
2026-04-30 14:44 47.66133 -2.11242 34059 ft 439 kts 331°
2026-04-30 14:44 47.71430 -2.15674 34049 ft 440 kts 331°
2026-04-30 14:45 47.76758 -2.20135 34050 ft 440 kts 331°
2026-04-30 14:45 47.82098 -2.24611 34037 ft 441 kts 330°
2026-04-30 14:46 47.87443 -2.29102 34042 ft 441 kts 330°
2026-04-30 14:46 47.92759 -2.33571 34044 ft 442 kts 330°
2026-04-30 14:47 47.98110 -2.38090 34041 ft 442 kts 330°
2026-04-30 14:47 48.03461 -2.42629 34043 ft 443 kts 329°
2026-04-30 14:48 48.08824 -2.47172 34047 ft 443 kts 329°
2026-04-30 14:48 48.14183 -2.51745 34043 ft 443 kts 329°
2026-04-30 14:49 48.19500 -2.56292 34039 ft 443 kts 329°
2026-04-30 14:49 48.24858 -2.60876 34036 ft 444 kts 329°
2026-04-30 14:50 48.32917 -2.67779 34039 ft 445 kts 329°
2026-04-30 14:51 48.40943 -2.74686 34039 ft 445 kts 329°
2026-04-30 14:52 48.49007 -2.81665 34036 ft 446 kts 329°
2026-04-30 14:52 48.57065 -2.88656 34045 ft 445 kts 329°
2026-04-30 14:53 48.65079 -2.95642 34041 ft 445 kts 328°
2026-04-30 14:54 48.75810 -3.05022 34041 ft 445 kts 328°
2026-04-30 14:55 48.83847 -3.12065 34036 ft 445 kts 328°
2026-04-30 14:56 48.94508 -3.21478 34033 ft 445 kts 328°
2026-04-30 14:57 49.02520 -3.28578 34033 ft 444 kts 328°
2026-04-30 14:58 49.13172 -3.38063 34033 ft 445 kts 328°
2026-04-30 14:58 49.21199 -3.45233 34039 ft 446 kts 328°
2026-04-30 14:59 49.26509 -3.49995 33713 ft 442 kts 328°
2026-04-30 15:00 49.34629 -3.56493 32913 ft 438 kts 338°
2026-04-30 15:00 49.40325 -3.59726 32390 ft 435 kts 339°
2026-04-30 15:01 49.45986 -3.62944 31864 ft 432 kts 339°
2026-04-30 15:01 49.48801 -3.64556 31624 ft 431 kts 339°
2026-04-30 15:01 49.54367 -3.67748 31111 ft 429 kts 339°
2026-04-30 15:02 49.57156 -3.69351 30870 ft 428 kts 339°
2026-04-30 15:02 49.59938 -3.70953 30624 ft 426 kts 339°
2026-04-30 15:03 49.68302 -3.75467 29854 ft 423 kts 348°
2026-04-30 15:03 49.74125 -3.75911 29296 ft 419 kts
2026-04-30 15:04 49.79879 -3.75214 29071 ft 417 kts
2026-04-30 15:04 49.88560 -3.74215 29082 ft 417 kts
2026-04-30 15:06 50.03041 -3.72495 29083 ft 418 kts
2026-04-30 15:07 50.14586 -3.71124 29090 ft 417 kts
2026-04-30 15:08 50.26167 -3.69726 29095 ft 417 kts
2026-04-30 15:08 50.34768 -3.68694 28222 ft 409 kts
2026-04-30 15:09 50.40386 -3.68015 27344 ft 401 kts
2026-04-30 15:09 50.45885 -3.67182 26506 ft 393 kts
2026-04-30 15:10 50.51281 -3.66102 25632 ft 389 kts
2026-04-30 15:11 50.61890 -3.63989 23824 ft 383 kts
2026-04-30 15:11 50.67164 -3.62977 22860 ft 380 kts
2026-04-30 15:12 50.74963 -3.61504 21537 ft 373 kts
2026-04-30 15:13 50.80066 -3.60524 20685 ft 370 kts
2026-04-30 15:14 50.90223 -3.58519 19000 ft 365 kts 13°
2026-04-30 15:14 50.96659 -3.53157 17754 ft 343 kts 51°
2026-04-30 15:16 51.04686 -3.40133 16346 ft 326 kts 41°
2026-04-30 15:17 51.13395 -3.36758 15373 ft 325 kts
2026-04-30 15:18 51.20925 -3.26360 13944 ft 289 kts 69°
2026-04-30 15:19 51.23649 -3.17815 12816 ft 292 kts 69°